Home > Weather > Gorleben > Past weeks

Flag for Germany Past Weather in Gorleben, Lower Saxony, Germany — Yesterday and Last 2 Weeks

Now
57 °F

Broken clouds.


Feels Like: 55 °F
Forecast: 50 / 68 °F
Wind: 8 mph from Southwest

Location: Mecklenburg-Vorpommern - Parchim

Current Time: May 26, 2016 at 6:41:53 PM

Latest Report: May 26, 2016 at 5:50 PM


Visibility: 4 mi

Pressure: 30.04 "Hg

Humidity: 94%

Dew Point: 55 °F

Location of GorlebenLocation

Past Weather in Gorleben — Graph

°F

Gorleben Temperature Yesterday

Maximum temperature yesterday: 61 °F (at 4:20 PM)
Minimum temperature yesterday: 54 °F (at 6:20 AM)
Average temperature yesterday: 57 °F

High & Low Weather Summary for the Past Weeks

 TemperatureHumidityPressure
High84 °F (May 22, 5:20 PM)100% (May 16, 6:50 AM)30.04 "Hg (May 16, 6:50 AM)
Low39 °F (May 16, 6:50 AM)25% (May 22, 5:50 PM)29.59 "Hg (May 13, 2:20 PM)
Average60 °F67%29.85 "Hg
* Reported May 11 5:20 PM — May 26 5:20 PM, Gorleben, Weather by CustomWeather, © 2016

Note: Actual official high and low records may vary slightly from our data, if they occured in-between our weather recording intervals... More about our weather records

Advertising

Gorleben Weather History for the Previous 24 Hours

Scroll right to see more
 ConditionsComfort  
Time TempWeatherWind HumidityBarometerVisibility
5:20 PM
Thu, May 26
57 °FMostly cloudy.6 mph94%30.04 "HgN/A
4:50 PM57 °FMostly cloudy.6 mph94%30.04 "HgN/A
4:20 PM59 °FMore clouds than sun.7 mph94%30.04 "HgN/A
3:50 PM59 °FMostly cloudy.6 mph94%30.04 "Hg5 mi
3:20 PM57 °FFog.5 mph94%30.04 "Hg3 mi
2:50 PM57 °FFog.7 mph94%30.04 "Hg3 mi
2:20 PM57 °FFog.7 mph94%30.04 "Hg2 mi
1:50 PM57 °FFog.6 mph94%30.04 "Hg2 mi
1:20 PM57 °FFog.5 mph94%30.01 "Hg2 mi
12:50 PM57 °FFog.6 mph94%30.01 "Hg1 mi
12:20 PM57 °FFog.5 mph94%30.01 "Hg2 mi
11:50 AM57 °FFog.5 mph94%30.01 "Hg2 mi
11:20 AM57 °FFog.5 mph94%30.01 "Hg2 mi
10:50 AM57 °FFog.6 mph94%30.01 "Hg2 mi
10:20 AM55 °FFog.3 mph100%30.01 "Hg1 mi
9:50 AM55 °FFog.5 mph100%30.01 "Hg1 mi
9:20 AM55 °FFog.3 mph100%30.01 "Hg0 mi
8:50 AM55 °FFog.5 mph100%30.01 "Hg0 mi
8:20 AM55 °FFog.6 mph100%30.01 "Hg0 mi
7:50 AM55 °FFog.3 mph100%29.98 "Hg0 mi
7:20 AM55 °FFog.3 mph100%29.98 "Hg0 mi
6:50 AM55 °FFog.6 mph100%29.98 "Hg0 mi
6:20 AM55 °FFog.5 mph100%29.98 "Hg0 mi
6:50 PM
Wed, May 25
61 °FPartly sunny.9 mph83%29.95 "HgN/A
6:20 PM61 °FPartly sunny.10 mph83%29.95 "HgN/A
Weather by CustomWeather, © 2016

See weather overviewHow to use our weather pages